DW4174 Weather Reports


time (UTC)temp
C
wind
direction
speed
KPH
gust
KPH
rain 1hr
cm
rain 24hr
cm
rain mn
cm
humidity
%
barometer
mb
20260905041628 34 262 3.2 6.4 0.00 0.00 0.00 29 1009.4
20260905040728 35 256 4.8 9.7 0.00 0.00 0.00 29 1009.3
20260905035828 35 250 4.8 11.3 0.00 0.00 0.00 28 1009.3
20260905034928 35 252 6.4 11.3 0.00 0.00 0.00 28 1009.1
20260905034028 35 262 6.4 12.9 0.00 0.00 0.00 27 1009.1
20260905033128 35 265 6.4 12.9 0.00 0.00 0.00 27 1009.0
20260905032228 35 276 4.8 12.9 0.00 0.00 0.00 26 1008.8
20260905031328 36 281 4.8 16.1 0.00 0.00 0.00 26 1008.8
20260905030428 36 288 6.4 11.3 0.00 0.00 0.00 26 1008.6
20260905025528 36 282 4.8 14.5 0.00 0.00 0.00 27 1008.4
20260905024628 36 303 3.2 14.5 0.00 0.00 0.00 32 1008.4
20260905021028 36 85 4.8 8.0 0.00 0.00 0.00 32 1007.8
20260905015228 36 64 1.6 11.3 0.00 0.00 0.00 32 1007.7
20260905014328 36 325 3.2 4.8 0.00 0.00 0.00 30 1007.7
20260905013428 37 331 3.2 6.4 0.00 0.00 0.00 30 1007.7
20260905012528 37 3 3.2 8.0 0.00 0.00 0.00 30 1007.7
20260905011628 37 339 1.6 9.7 0.00 0.00 0.00 30 1007.6
20260905010728 37 36 0.0 6.4 0.00 0.00 0.00 29 1007.5
20260905004028 38 256 3.2 11.3 0.00 0.00 0.00 29 1007.6
20260905003128 38 281 1.6 9.7 0.00 0.00 0.00 29 1007.7
20260905002227 37 246 1.6 3.2 0.00 0.00 0.00 30 1007.7
20260905001328 37 263 3.2 11.3 0.00 0.00 0.00 30 1007.7
20260905000428 37 17 4.8 8.0 0.00 0.00 0.00 30 1007.8
20260904235528 38 315 3.2 14.5 0.00 0.00 0.00 29 1007.8
20260904234628 38 269 3.2 8.0 0.00 0.00 0.00 29 1007.8
20260904232828 38 195 4.8 11.3 0.00 0.00 0.00 28 1007.9
20260904231927 38 239 3.2 11.3 0.00 0.00 0.00 28 1008.0
20260904231028 38 224 3.2 8.0 0.00 0.00 0.00 30 1008.1
20260904230128 37 171 4.8 14.5 0.00 0.00 0.00 30 1008.1
20260904224327 38 197 6.4 14.5 0.00 0.00 0.00 30 1008.2
20260904223427 38 165 6.4 16.1 0.00 0.00 0.00 30 1008.5
20260904222527 38 214 6.4 11.3 0.00 0.00 0.00 29 1008.4
20260904221627 38 198 3.2 19.3 0.00 0.00 0.00 30 1008.5
20260904220727 37 229 3.2 8.0 0.00 0.00 0.00 31 1008.6
20260904215827 37 227 8.0 17.7 0.00 0.00 0.00 31 1008.7
20260904214927 38 162 8.0 19.3 0.00 0.00 0.00 31 1009.0
20260904214027 38 164 6.4 22.5 0.00 0.00 0.00 31 1009.1
20260904213127 38 170 4.8 16.1 0.00 0.00 0.00 30 1009.1
20260904212227 37 186 4.8 11.3 0.00 0.00 0.00 31 1009.2
20260904211327 37 164 6.4 11.3 0.00 0.00 0.00 31 1009.4
20260904210427 37 194 8.0 20.9 0.00 0.00 0.00 30 1009.6
20260904205527 38 171 8.0 17.7 0.00 0.00 0.00 30 1009.5
20260904204627 39 202 6.4 19.3 0.00 0.00 0.00 29 1009.7
20260904203727 39 182 8.0 19.3 0.00 0.00 0.00 30 1009.9
20260904202827 38 245 8.0 19.3 0.00 0.00 0.00 30 1010.0
20260904201927 38 173 9.7 20.9 0.00 0.00 0.00 33 1010.1
20260904201027 37 156 9.7 27.4 0.00 0.00 0.00 33 1010.2
20260904200127 37 166 8.0 17.7 0.00 0.00 0.00 32 1010.4
20260904195227 38 174 6.4 22.5 0.00 0.00 0.00 33 1010.5
20260904194327 37 170 6.4 22.5 0.00 0.00 0.00 35 1010.7
20260904193427 37 179 6.4 22.5 0.00 0.00 0.00 33 1010.8
20260904192527 37 182 6.4 16.1 0.00 0.00 0.00 36 1010.8
20260904191627 37 153 8.0 16.1 0.00 0.00 0.00 37 1011.0
20260904190727 36 161 4.8 17.7 0.00 0.00 0.00 36 1011.2
20260904184927 36 196 6.4 11.3 0.00 0.00 0.00 39 1011.5
20260904184027 36 176 6.4 14.5 0.00 0.00 0.00 37 1011.7
20260904182227 35 167 8.0 14.5 0.00 0.00 0.00 40 1011.9
20260904181327 36 145 8.0 22.5 0.00 0.00 0.00 39 1012.1
20260904175527 35 131 8.0 16.1 0.00 0.00 0.00 42 1012.2
20260904174627 35 126 8.0 17.7 0.00 0.00 0.00 43 1012.2
20260904173727 35 134 8.0 20.9 0.00 0.00 0.00 42 1012.2
20260904172827 35 149 8.0 16.1 0.00 0.00 0.00 43 1012.2
20260904171027 34 154 9.7 20.9 0.00 0.00 0.00 46 1012.3
20260904165227 34 150 8.0 24.1 0.00 0.00 0.00 47 1012.1
20260904164327 34 135 8.0 17.7 0.00 0.00 0.00 47 1012.0
20260904163427 33 168 8.0 17.7 0.00 0.00 0.00 48 1012.0
20260904162527 33 160 11.3 24.1 0.00 0.00 0.00 48 1011.9
20260904161627 33 155 9.7 22.5 0.00 0.00 0.00 49 1012.0
20260904160727 32 147 8.0 17.7 0.00 0.00 0.00 51 1012.0
20260904155827 32 140 8.0 16.1 0.00 0.00 0.00 52 1012.0
20260904154927 32 147 9.7 16.1 0.00 0.00 0.00 53 1012.0
20260904154027 32 155 8.0 19.3 0.00 0.00 0.00 53 1011.9
20260904151327 31 134 8.0 19.3 0.00 0.00 0.00 55 1011.9
20260904150427 31 153 4.8 16.1 0.00 0.00 0.00 56 1011.8
20260904145527 31 131 4.8 11.3 0.00 0.00 0.00 56 1011.7
20260904144627 31 145 6.4 16.1 0.00 0.00 0.00 57 1011.6
20260904142827 30 158 4.8 20.9 0.00 0.00 0.00 58 1011.4
20260904141927 30 153 4.8 11.3 0.00 0.00 0.00 60 1011.4
20260904141027 30 151 4.8 14.5 0.00 0.00 0.00 61 1011.2
20260904140127 29 154 3.2 9.7 0.00 0.00 0.00 61 1011.1
20260904135227 29 148 3.2 8.0 0.00 0.00 0.00 61 1011.0
20260904134327 29 159 3.2 9.7 0.00 0.00 0.00 62 1010.9
20260904133427 28 147 1.6 9.7 0.00 0.00 0.00 62 1010.8
20260904132527 28 134 1.6 6.4 0.00 0.00 0.00 62 1010.6
20260904131627 28 128 1.6 8.0 0.00 0.00 0.00 62 1010.5
20260904130727 28 102 1.6 4.8 0.00 0.00 0.00 61 1010.3
20260904125827 28 102 1.6 6.4 0.00 0.00 0.00 61 1010.2
20260904124027 29 91 1.6 6.4 0.00 0.00 0.00 60 1010.0
20260904123127 29 101 1.6 4.8 0.00 0.00 0.00 60 1009.9
20260904122227 29 151 3.2 9.7 0.00 0.00 0.00 59 1009.8
20260904121327 29 152 6.4 14.5 0.00 0.00 0.00 59 1009.7
20260904120427 30 152 6.4 14.5 0.00 0.00 0.00 59 1009.7
20260904115527 29 151 6.4 17.7 0.00 0.00 0.00 59 1009.6
20260904114627 30 152 8.0 14.5 0.00 0.00 0.00 58 1009.6
20260904111926 30 150 4.8 12.9 0.00 0.00 0.00 58 1009.6
20260904111026 30 156 6.4 16.1 0.00 0.00 0.00 57 1009.6
20260904110127 30 155 4.8 16.1 0.00 0.00 0.00 57 1009.6
20260904105227 30 155 4.8 14.5 0.00 0.00 0.00 57 1009.6
20260904104327 30 151 3.2 14.5 0.00 0.00 0.00 57 1009.5
20260904103426 30 155 4.8 12.9 0.00 0.00 0.00 57 1009.5
20260904101627 30 145 3.2 14.5 0.00 0.00 0.00 57 1009.4
20260904100726 30 139 0.0 4.8 0.00 0.00 0.00 56 1009.2
20260904095826 30 158 1.6 6.4 0.00 0.00 0.00 56 1009.2
20260904094926 30 150 1.6 11.3 0.00 0.00 0.00 55 1009.2
20260904094026 30 155 1.6 8.0 0.00 0.00 0.00 56 1009.2
20260904093126 30 148 3.2 12.9 0.00 0.00 0.00 55 1009.2
20260904091327 30 151 3.2 9.7 0.00 0.00 0.00 55 1009.2
20260904090426 30 152 1.6 9.7 0.00 0.00 0.00 55 1009.2
20260904084626 30 151 0.0 4.8 0.00 0.00 0.00 55 1009.2
20260904083726 30 158 1.6 6.4 0.00 0.00 0.00 54 1009.2
20260904082826 30 186 0.0 4.8 0.00 0.00 0.00 54 1009.3
20260904081926 30 174 1.6 6.4 0.00 0.00 0.00 53 1009.3
20260904081026 31 160 1.6 6.4 0.00 0.00 0.00 53 1009.4
20260904080126 31 149 3.2 6.4 0.00 0.00 0.00 53 1009.4
20260904075226 31 161 1.6 9.7 0.00 0.00 0.00 52 1009.3
20260904074326 31 171 1.6 9.7 0.00 0.00 0.00 52 1009.3
20260904072526 31 149 1.6 12.9 0.00 0.00 0.00 52 1009.2
20260904070726 31 153 3.2 11.3 0.00 0.00 0.00 53 1009.1
20260904065826 31 166 3.2 16.1 0.00 0.00 0.00 53 1009.0
20260904064926 31 165 3.2 8.0 0.00 0.00 0.00 53 1008.9
20260904064026 31 160 4.8 11.3 0.00 0.00 0.00 52 1008.8
20260904063126 31 154 6.4 16.1 0.00 0.00 0.00 52 1008.8
20260904061326 32 149 6.4 17.7 0.00 0.00 0.00 50 1008.7
20260904060426 32 169 3.2 12.9 0.00 0.00 0.00 49 1008.6
20260904055526 32 177 3.2 11.3 0.00 0.00 0.00 48 1008.7
20260904054626 32 169 4.8 11.3 0.00 0.00 0.00 48 1008.7
20260904053726 32 183 4.8 9.7 0.00 0.00 0.00 48 1008.7
20260904052826 32 189 4.8 12.9 0.00 0.00 0.00 48 1008.6
20260904051926 32 186 4.8 12.9 0.00 0.00 0.00 47 1008.4
20260904051026 32 173 4.8 12.9 0.00 0.00 0.00 47 1008.4
20260904050126 32 184 6.4 12.9 0.00 0.00 0.00 46 1008.4
20260904045226 32 178 6.4 16.1 0.00 0.00 0.00 45 1008.3
20260904044326 32 184 4.8 12.9 0.00 0.00 0.00 44 1008.4